TIANLIAN 1-01

Last updated on Sat Apr 23 2022 00:02:37 GMT+0000 (Coordinated Universal Time)

1 32779U 08019A 22112.57166604 -.00000156 00000+0 00000+0 0 9990 2 32779 6.4172 74.3687 0005664 277.6076 244.4854 0.97414556 586
UTC large
Height (km)
Speed (km/s)
/
Latitude / Longitude
Inclination (degrees)
Orbital Period (minutes)
Azimuth
Elevation
Range (km)
Doppler Factor

Next 0 passes for location: London (51.5072 / 0.1276)

Sorry there are no passes over London.